This is the latest recevied weather packets stored in our database for station/object IU7URP-13. If no packets are shown the sender has not sent any weather packets the latest 10 day(s).
| Time | Temp. | Humidity | Pressure | Rain* | Wind** | Luminosity | Snow |
|---|---|---|---|---|---|---|---|
| 1777718146 | 16.67° C | 53% | 1022.6 hPa | - | - | - | - |
| 1777716945 | 16.67° C | 46% | 1022.1 hPa | - | - | - | - |
| 1777716517 | 16.67° C | 47% | 1022.4 hPa | - | - | - | - |
| 1777715357 | 16.67° C | 60% | 1022.4 hPa | - | - | - | - |
| 1777713650 | 16.11° C | 50% | 1022.6 hPa | - | - | - | - |
| 1777712444 | 16.11° C | 49% | 1022.6 hPa | - | - | - | - |
| 1777711244 | 16.67° C | 66% | 1022.5 hPa | - | - | - | - |
| 1777710042 | 16.11° C | 61% | 1022.6 hPa | - | - | - | - |
| 1777707639 | 15.56° C | 85% | 1022.5 hPa | - | - | - | - |
| 1777706438 | 16.11° C | 73% | 1022.5 hPa | - | - | - | - |
| 1777705236 | 15° C | 85% | 1022.4 hPa | - | - | - | - |
| 1777704035 | 15.56° C | 70% | 1022.2 hPa | - | - | - | - |
| 1777702834 | 15.56° C | 51% | 1022.2 hPa | - | - | - | - |
| 1777701633 | 15.56° C | 55% | 1022.2 hPa | - | - | - | - |
| 1777700431 | 15° C | 43% | 1021.8 hPa | - | - | - | - |
| 1777699230 | 14.44° C | 40% | 1021.8 hPa | - | - | - | - |
| 1777698028 | 14.44° C | 42% | 1021.9 hPa | - | - | - | - |
| 1777696827 | 13.33° C | 38% | 1021.5 hPa | - | - | - | - |
| 1777696625 | 13.33° C | 38% | 1021.6 hPa | - | - | - | - |
| 1777695423 | 12.78° C | 49% | 1021.5 hPa | - | - | - | - |
| 1777694222 | 12.22° C | 60% | 1021.3 hPa | - | - | - | - |
| 1777693021 | 11.67° C | 61% | 1020.8 hPa | - | - | - | - |
| 1777691819 | 11.67° C | 63% | 1020.9 hPa | - | - | - | - |
| 1777690632 | 11.67° C | 71% | 1021 hPa | - | - | - | - |
| 1777689416 | 12.22° C | 66% | 1020.7 hPa | - | - | - | - |
* Rain since midnight (hover to see other rain measurements)
** Current wind speed in m/s (hover to see current wind gust speed)